OBJECT AU, 57208

Orbit data source: Space-Track

You're viewing an uncataloged RSO

Recently launched and/or uncataloged RSOs may have evolving metadata. Metadata may include the following, but is not limited to: Owner, Manufacturer, Bus, Motor, and Mission.

OBJECT AU, 57208 is a satellite in SSO that was launched on Tue, 27 Jun 2023 UTC via a SOYUZ-2-1B launch vehicle from the Vostochny Cosmodrome (VOSTO). Unknown objects in Earth's orbit typically refer to objects detected orbiting the Earth but have not yet been identified or cataloged. These objects could be anything from previously untracked satellites, spent rocket stages, debris from satellite collisions, or even natural meteoroids temporarily captured by Earth's gravity.

Loading next visibility...
Identifier
57208, 2023-091AU
Orbit
SSO
Country
Flag of TBDTBD
Related business
Manufacturer
Sputniks
Mission
Operational Commercial Communications
Bus & Motor
CUBESAT 3U?, Unknown motor
Mass
3 kg wet, 3 kg dry
Launch date (UTC)
2023-06-27 (3 years ago)
Launch vehicle
SOYUZ-2-1B
Launch site
Vostochny Cosmodrome (VOSTO)
Object type
Unknown
Shape & HBR
Box, 0.2 m
Radar Cross Section
0.035 m², Medium (>0.1 m² and < 1m²)

Expand to show TLE details & history
Last TLE update: 8 hours ago

TLE from 8 hours ago
0 OBJECT AU
1 57208U 23091AU  26256.94995976  .00019230  00000-0  45295-3 0  9999
2 57208  97.5010 330.2656 0007107 106.5826 253.6201 15.41956403178456
Epoch: 2026-09-13T22:47Z
TLE epoch observation values (Epoch: 2026-09-13T22:47:56.523Z)
Latitude
-0.00008°
Longitude
-4.65717°
Altitude
444.823 km
Speed
7.644 km/s
True Right ascension
22h 01m 03s
True Declination
0° 00' 00"
Sunlit
Object was in full shadow at epoch
Visualization orbit readout
Latitude
Unknown
Longitude
Unknown
Altitude
Unknown
Speed
Unknown
Apparent Right ascension
Unknown
Apparent Declination
Unknown
Sunlit
N/A
Visualization observer readout
Local Sidereal Time
23:28:05
Azimuth
Unknown
Elevation
Unknown
Doppler factor
Unknown
Orbital elements
Apogee altitude
442.12 km
Perigee altitude
432.433 km
Semi-major axis
6,815.414 km
Eccentricity
0.00071
Inclination
97.501°
RAAN
330.2656°
Arg. of periapsis
106.5826°
True anomaly
253.54198°
Mean anomaly
253.6201°
Eccentric anomaly
253.58104°
Mean motion
3.85749 °/min
Orbital period
93.32 mins
BSTAR
0.00045295
Loading maneuver chart data...
Computing Atmospheric mass density...
Loading historical data...
Loading historical data...
Loading historical data...
Loading historical data...
Loading historical data...
Loading historical data...
Loading historical data...

Documentation

Showing up to 5 results
|